Regional Weather Roundup
Issued by NWS Goodland, KS

Home | Current Version | Previous Version | Graphics & Text | Print | Product List | Glossary On
Versions: 1 2 3 4 5 6 7 8 9 10 11 12 13 14 15 16 17 18 19 20 21 22 23 24 25 26 27 28 29 30 31 32 33 34 35 36 37 38 39 40 41 42 43 44 45 46 47 48 49 50
000
ASUS43 KGLD 190008
RWRGLD

GOODLAND FORECAST AREA HOURLY WEATHER ROUNDUP
NATIONAL WEATHER SERVICE GOODLAND KS
600 PM MDT SAT APR 18 2015

...OFFICIAL OBSERVATIONS...

CITY           SKY/WX    TMP DP  RH WIND       PRES   REMARKS
GOODLAND KS    MOSUNNY   56  44  64 NW18      29.77R
HILL CITY KS   LGT RAIN  60  47  61 SE20G26   29.74R
IMPERIAL NEB   PTSUNNY   56  43  61 W12       29.79F
MCCOOK NEB     TSTM      62  44  51 SW20      29.75R
AKRON CO       LGT RAIN  44  40  85 N12       29.86R
BURLINGTON CO  PTSUNNY   50  40  68 NW18      29.81R
LIMON CO       PTSUNNY   49  33  54 NW13      29.84R
$$

...UNOFFICIAL OBSERVATIONS...

CITY           SKY/WX    TMP DP  RH WIND       PRES   REMARKS
COLBY KS       SUNNY     64  43  45 SW17      29.76R
GOVE KS          N/A     69  32  25 MISG        N/A
LENORA KS        N/A     59  32  36 MISG        N/A
NORTON KS      HVY RAIN  54  46  76 SW7G14    29.80
SHARON SPRINGS   N/A     58  42  55 MISG        N/A
TRIBUNE KS     MOSUNNY   59  43  55 S12       29.80
YUMA CO          N/A     46  41  83 NW13        N/A
$$


USA.gov is the U.S. government's official web portal to all federal, state and local government web resources and services.